This is the latest recevied weather packets stored in our database for station/object W4OTS. If no packets are shown the sender has not sent any weather packets the latest 10 day(s).
| Time | Temp. | Humidity | Pressure | Rain* | Wind** | Luminosity | Snow |
|---|---|---|---|---|---|---|---|
| 1777781777 | 7.78° C | 77% | 1018.1 hPa | 0 mm | - | 0 W/m² | - |
| 1777781475 | 7.78° C | 78% | 1017.8 hPa | 0 mm | - | 0 W/m² | - |
| 1777781172 | 7.78° C | 77% | 1017.9 hPa | 0 mm | - | 0 W/m² | - |
| 1777780870 | 7.78° C | 74% | 1017.7 hPa | 0 mm | - | 0 W/m² | - |
| 1777780566 | 7.78° C | 74% | 1017.7 hPa | 0 mm | - | 0 W/m² | - |
| 1777780264 | 7.78° C | 70% | 1017.9 hPa | 0 mm | - | 0 W/m² | - |
| 1777779961 | 7.78° C | 70% | 1017.7 hPa | 0 mm | - | 0 W/m² | - |
| 1777779658 | 7.78° C | 76% | 1017.7 hPa | 0 mm | - | 0 W/m² | - |
| 1777779355 | 7.78° C | 78% | 1017.9 hPa | 0 mm | - | 0 W/m² | - |
| 1777779053 | 8.33° C | 75% | 1017.8 hPa | 0 mm | - | 0 W/m² | - |
| 1777778751 | 8.33° C | 73% | 1017.7 hPa | 0 mm | - | 0 W/m² | - |
| 1777778449 | 8.33° C | 72% | 1017.6 hPa | 0 mm | - | 0 W/m² | - |
| 1777778146 | 8.33° C | 73% | 1017.6 hPa | 0 mm | - | 0 W/m² | - |
| 1777777844 | 8.33° C | 73% | 1017.5 hPa | 0 mm | - | 0 W/m² | - |
| 1777777539 | 8.89° C | 73% | 1017.7 hPa | 0 mm | - | 0 W/m² | - |
| 1777777237 | 8.89° C | 71% | 1017.4 hPa | 0 mm | - | 0 W/m² | - |
| 1777776933 | 9.44° C | 72% | 1017.6 hPa | 0 mm | - | 0 W/m² | - |
| 1777776631 | 9.44° C | 70% | 1017.5 hPa | 0 mm | - | 0 W/m² | - |
| 1777776327 | 9.44° C | 69% | 1017.6 hPa | 0 mm | - | 0 W/m² | - |
| 1777776025 | 9.44° C | 69% | 1017.5 hPa | 0 mm | - | 0 W/m² | - |
| 1777775721 | 10° C | 66% | 1017.4 hPa | 0 mm | - | 0 W/m² | - |
| 1777775419 | 10° C | 67% | 1017.3 hPa | 0 mm | - | 0 W/m² | - |
| 1777775115 | 10.56° C | 65% | 1017.2 hPa | 0 mm | - | 0 W/m² | - |
| 1777774809 | 10.56° C | 64% | 1017.2 hPa | 0 mm | - | 0 W/m² | - |
| 1777774506 | 10.56° C | 65% | 1017 hPa | 0 mm | - | 0 W/m² | - |
* Rain latest hour (hover to see other rain measurements)
** Current wind speed in m/s (hover to see current wind gust speed)